FW7007 Weather Reports


time (UTC)temp
C
wind
direction
speed
KPH
gust
KPH
rain 1hr
cm
rain 24hr
cm
rain mn
cm
humidity
%
barometer
mb
20260505034855 16 97 0.0 0.0 0.00 0.00 0.00 65 1014.3
20260505034351 16 97 0.0 0.0 0.00 0.00 0.00 65 1014.5
20260505033848 16 97 0.0 0.0 0.00 0.00 0.00 66 1014.4
20260505033345 16 97 0.0 0.0 0.00 0.00 0.00 65 1014.4
20260505032843 16 97 0.0 0.0 0.00 0.00 0.00 65 1014.4
20260505032340 16 97 0.0 0.0 0.00 0.00 0.00 65 1014.4
20260505031837 16 97 0.0 0.0 0.00 0.00 0.00 65 1014.5
20260505031333 16 97 0.0 0.0 0.00 0.00 0.00 65 1014.4
20260505030831 16 97 0.0 0.0 0.00 0.00 0.00 64 1014.3
20260505030326 17 96 0.0 0.0 0.00 0.00 0.00 64 1014.6
20260505025822 17 97 0.0 0.0 0.00 0.00 0.00 64 1014.5
20260505025320 17 97 0.0 0.0 0.00 0.00 0.00 63 1014.5
20260505024818 17 97 0.0 0.0 0.00 0.00 0.00 62 1014.4
20260505024315 17 97 0.0 0.0 0.00 0.00 0.00 62 1014.6
20260505023813 17 96 0.0 0.0 0.00 0.00 0.00 62 1014.8
20260505023309 17 96 0.0 0.0 0.00 0.00 0.00 62 1014.4
20260505022807 18 97 0.0 0.0 0.00 0.00 0.00 62 1014.6
20260505022304 18 96 0.0 0.0 0.00 0.00 0.00 61 1014.6
20260505021800 18 97 0.0 0.0 0.00 0.00 0.00 61 1014.6
20260505021257 18 97 0.0 1.6 0.00 0.00 0.00 61 1014.5
20260505020753 18 96 0.0 1.6 0.00 0.00 0.00 60 1014.8
20260505020248 18 102 0.0 0.0 0.00 0.00 0.00 61 1014.6
20260505015746 18 101 0.0 0.0 0.00 0.00 0.00 61 1014.6
20260505015243 18 96 0.0 1.6 0.00 0.00 0.00 62 1014.2
20260505014740 18 96 0.0 0.0 0.00 0.00 0.00 62 1014.3
20260505014237 18 103 0.0 0.0 0.00 0.00 0.00 62 1014.3
20260505013734 18 93 0.0 3.2 0.00 0.00 0.00 63 1014.4
20260505013231 18 93 0.0 1.6 0.00 0.00 0.00 62 1014.3
20260505012729 18 101 0.0 0.0 0.00 0.00 0.00 63 1014.2
20260505012226 18 101 0.0 0.0 0.00 0.00 0.00 64 1014.3
20260505011721 19 100 0.0 0.0 0.00 0.00 0.00 64 1014.3
20260505011219 19 100 0.0 0.0 0.00 0.00 0.00 64 1014.0
20260505010714 19 100 0.0 0.0 0.00 0.00 0.00 63 1014.0
20260505010211 20 101 0.0 0.0 0.00 0.00 0.00 62 1014.1
20260505005707 20 99 0.0 0.0 0.00 0.00 0.00 62 1014.0
20260505005205 20 93 0.0 1.6 0.00 0.00 0.00 62 1014.1
20260505004702 20 97 0.0 1.6 0.00 0.00 0.00 62 1014.0
20260505004158 20 99 0.0 0.0 0.00 0.00 0.00 62 1013.9
20260505003656 20 98 0.0 0.0 0.00 0.00 0.00 61 1013.8
20260505003153 20 99 0.0 0.0 0.00 0.00 0.00 60 1013.6
20260505002649 20 111 1.6 1.6 0.00 0.00 0.00 60 1013.8
20260505002148 20 128 1.6 3.2 0.00 0.00 0.00 60 1013.9
20260505001644 21 98 0.0 0.0 0.00 0.00 0.00 59 1013.9
20260505001142 21 104 0.0 1.6 0.00 0.00 0.00 60 1013.9
20260505000638 21 106 0.0 1.6 0.00 0.00 0.00 59 1013.6
20260505000137 21 97 0.0 1.6 0.00 0.00 0.00 58 1013.9
20260504235632 21 99 0.0 1.6 0.00 0.00 0.00 58 1013.9
20260504235129 21 102 1.6 3.2 0.00 0.00 0.00 57 1013.9
20260504234626 22 107 1.6 1.6 0.00 0.00 0.00 58 1013.6
20260504234124 22 116 1.6 1.6 0.00 0.00 0.00 57 1013.7
20260504233619 22 57 1.6 4.8 0.00 0.00 0.00 55 1013.7
20260504233115 22 101 1.6 1.6 0.00 0.00 0.00 58 1013.8
20260504232613 22 102 0.0 1.6 0.00 0.00 0.00 56 1013.5
20260504232110 22 101 0.0 1.6 0.00 0.00 0.00 57 1013.8
20260504231606 22 90 1.6 3.2 0.00 0.00 0.00 54 1013.6
20260504231102 22 129 1.6 3.2 0.00 0.00 0.00 54 1013.6
20260504230558 22 67 1.6 1.6 0.00 0.00 0.00 53 1013.7
20260504230053 23 72 1.6 3.2 0.00 0.00 0.00 52 1013.6
20260504225549 23 58 3.2 3.2 0.00 0.00 0.00 55 1013.4
20260504225046 23 82 1.6 3.2 0.00 0.00 0.00 56 1013.6
20260504224543 23 75 0.0 1.6 0.00 0.00 0.00 53 1013.3
20260504224040 23 82 1.6 3.2 0.00 0.00 0.00 54 1013.3
20260504223537 23 90 0.0 3.2 0.00 0.00 0.00 56 1013.4
20260504223032 23 98 0.0 0.0 0.00 0.00 0.00 55 1013.3
20260504222530 23 99 0.0 1.6 0.00 0.00 0.00 53 1013.4
20260504222027 23 81 1.6 1.6 0.00 0.00 0.00 51 1013.7
20260504221524 23 92 0.0 1.6 0.00 0.00 0.00 52 1013.6
20260504221021 23 111 0.0 3.2 0.00 0.00 0.00 55 1013.7
20260504220518 23 101 0.0 3.2 0.00 0.00 0.00 52 1013.7
20260504220015 24 111 1.6 3.2 0.00 0.00 0.00 51 1013.6
20260504215511 24 102 0.0 1.6 0.00 0.00 0.00 50 1013.7
20260504215009 25 94 1.6 1.6 0.00 0.00 0.00 52 1013.8
20260504214504 25 93 1.6 1.6 0.00 0.00 0.00 48 1013.7
20260504214001 25 78 1.6 3.2 0.00 0.00 0.00 50 1013.7
20260504213456 25 100 3.2 3.2 0.00 0.00 0.00 46 1013.8
20260504212955 25 84 1.6 3.2 0.00 0.00 0.00 47 1013.7
20260504212450 25 104 1.6 1.6 0.00 0.00 0.00 49 1013.6
20260504211948 25 86 3.2 3.2 0.00 0.00 0.00 47 1013.8
20260504211444 25 95 0.0 3.2 0.00 0.00 0.00 47 1014.1
20260504210942 25 115 1.6 1.6 0.00 0.00 0.00 48 1013.8
20260504210438 25 85 0.0 8.0 0.00 0.00 0.00 48 1013.8
20260504205935 25 96 0.0 1.6 0.00 0.00 0.00 48 1013.8
20260504205433 25 107 0.0 3.2 0.00 0.00 0.00 49 1013.9
20260504204931 25 107 1.6 3.2 0.00 0.00 0.00 46 1014.0
20260504204429 25 91 1.6 8.0 0.00 0.00 0.00 47 1014.0
20260504203928 25 87 1.6 3.2 0.00 0.00 0.00 46 1014.0
20260504203425 25 87 0.0 3.2 0.00 0.00 0.00 48 1014.0
20260504202921 25 64 3.2 3.2 0.00 0.00 0.00 47 1014.3
20260504202418 25 88 1.6 3.2 0.00 0.00 0.00 45 1014.3
20260504201914 25 109 1.6 3.2 0.00 0.00 0.00 47 1014.3
20260504201412 25 103 1.6 1.6 0.00 0.00 0.00 47 1014.3
20260504200909 25 69 0.0 3.2 0.00 0.00 0.00 50 1014.3
20260504200406 25 101 0.0 3.2 0.00 0.00 0.00 49 1014.4
20260504195903 25 90 1.6 9.7 0.00 0.00 0.00 51 1014.5
20260504195358 25 90 0.0 1.6 0.00 0.00 0.00 50 1014.6
20260504194855 25 84 1.6 1.6 0.00 0.00 0.00 50 1014.6
20260504194351 25 108 1.6 3.2 0.00 0.00 0.00 51 1014.7
20260504193847 25 94 0.0 3.2 0.00 0.00 0.00 50 1014.7
20260504193344 25 88 1.6 4.8 0.00 0.00 0.00 50 1014.8
20260504192843 24 156 1.6 3.2 0.00 0.00 0.00 53 1015.0
20260504192341 24 101 0.0 3.2 0.00 0.00 0.00 51 1015.0
20260504191839 25 111 3.2 4.8 0.00 0.00 0.00 50 1015.1
20260504191337 25 106 1.6 3.2 0.00 0.00 0.00 52 1015.3
20260504190832 24 99 1.6 3.2 0.00 0.00 0.00 52 1015.3
20260504190328 23 113 1.6 3.2 0.00 0.00 0.00 52 1015.5
20260504185825 23 146 1.6 3.2 0.00 0.00 0.00 52 1015.4
20260504185322 23 98 1.6 3.2 0.00 0.00 0.00 52 1015.6
20260504184818 23 108 0.0 1.6 0.00 0.00 0.00 54 1015.6
20260504184314 23 94 0.0 3.2 0.00 0.00 0.00 52 1015.5
20260504183809 23 58 3.2 4.8 0.00 0.00 0.00 52 1015.8
20260504183307 23 120 3.2 3.2 0.00 0.00 0.00 52 1015.9
20260504182804 23 76 1.6 4.8 0.00 0.00 0.00 52 1016.1
20260504182301 23 79 1.6 3.2 0.00 0.00 0.00 52 1016.0
20260504181759 24 66 1.6 3.2 0.00 0.00 0.00 52 1016.1
20260504181256 23 93 1.6 4.8 0.00 0.00 0.00 51 1016.3
20260504180755 23 102 0.0 3.2 0.00 0.00 0.00 53 1016.3
20260504180253 23 104 0.0 3.2 0.00 0.00 0.00 52 1016.4
20260504175751 23 63 3.2 4.8 0.00 0.00 0.00 53 1016.3
20260504175247 22 73 1.6 3.2 0.00 0.00 0.00 52 1016.2
20260504174745 23 95 1.6 3.2 0.00 0.00 0.00 52 1016.2
20260504174243 22 87 1.6 1.6 0.00 0.00 0.00 55 1016.4
20260504173739 22 92 0.0 4.8 0.00 0.00 0.00 53 1016.4
20260504173236 22 74 3.2 3.2 0.00 0.00 0.00 53 1016.6
20260504172733 22 85 1.6 3.2 0.00 0.00 0.00 51 1016.6
20260504172229 22 101 1.6 4.8 0.00 0.00 0.00 53 1016.6
20260504171726 22 88 1.6 3.2 0.00 0.00 0.00 54 1016.8
20260504171223 22 74 1.6 4.8 0.00 0.00 0.00 52 1016.8
20260504170720 22 89 3.2 3.2 0.00 0.00 0.00 53 1016.6
20260504170217 21 77 1.6 3.2 0.00 0.00 0.00 53 1016.9
20260504160136 20 93 0.0 1.6 0.00 0.00 0.00 57 1017.9
20260504151103 16 95 0.0 3.2 0.00 0.00 0.00 64 1018.3
20260504150600 16 107 0.0 1.6 0.00 0.00 0.00 64 1018.5
20260504141026 15 89 0.0 3.2 0.00 0.00 0.00 69 1019.4
20260504140523 14 80 1.6 3.2 0.00 0.00 0.00 70 1019.1
20260504130447 11 96 0.0 0.0 0.00 0.00 0.00 82 1019.3
20260504110334 6 94 0.0 0.0 0.00 0.00 0.00 95 1018.2
20260504100251 7 94 0.0 0.0 0.00 0.00 0.00 92 1018.1
20260504081645 8 94 0.0 0.0 0.00 0.00 0.00 90 1018.5
20260504081141 8 94 0.0 0.0 0.00 0.00 0.00 89 1018.5
20260504080638 8 94 0.0 0.0 0.00 0.00 0.00 89 1018.3
20260504080134 8 94 0.0 0.0 0.00 0.00 0.00 89 1018.2
20260504050450 10 94 0.0 0.0 0.00 0.00 0.00 83 1018.6
20260504045947 10 94 0.0 0.0 0.00 0.00 0.00 83 1018.5
20260504045443 10 94 0.0 0.0 0.00 0.00 0.00 83 1018.8
20260504044939 10 94 0.0 0.0 0.00 0.00 0.00 83 1018.7
20260504044437 10 94 0.0 0.0 0.00 0.00 0.00 82 1018.6
20260504043934 10 94 0.0 0.0 0.00 0.00 0.00 82 1018.6
20260504043431 10 94 0.0 0.0 0.00 0.00 0.00 82 1018.6
20260504042929 10 94 0.0 0.0 0.00 0.00 0.00 82 1018.5
20260504042425 10 94 0.0 0.0 0.00 0.00 0.00 82 1018.4
20260504041922 10 94 0.0 0.0 0.00 0.00 0.00 82 1018.5
20260504041418 10 94 0.0 0.0 0.00 0.00 0.00 81 1018.4
20260504040914 10 94 0.0 0.0 0.00 0.00 0.00 81 1018.5
20260504040412 10 94 0.0 0.0 0.00 0.00 0.00 79 1018.4
20260504035908 10 94 0.0 0.0 0.00 0.00 0.00 78 1018.5
20260504035405 10 94 0.0 0.0 0.00 0.00 0.00 78 1018.5